星链-6353 (STARLINK-6353 )

导读

STARLINK-6353是美国星链计划中的一颗低轨卫星,于2023年6月22日发射升空,隶属于SpaceX公司的星链星座网络。作为星链批量部署的卫星之一,它主要为全球用户提供高速互联网接入服务,尤其覆盖偏远地区等网络基础设施薄弱区域,助力实现全球卫星互联网络的构建,推动太空互联网基础设施的完善。

基本信息
目录编号:
57056
目录名称:
STARLINK-6353
国际标识:
2023-088J
轨道中心:
EARTH
卫星名称:
星链-6353
卫星全名:
星链-6353 (STARLINK-6353 )
卫星状态:
在轨 (已飞行1178 天)
发射日期:
2023-06-22 UTC
国别 :
美国 (US)
星等 :
--
该卫星已列入 空间交会检测服务 Space Conjunction Data Service (SCDS) ,当前飞行风险评估等级: 无高风险
轨道信息
数据来源 国际轨道数据 AOE轨道数据
星历时间 2026-09-12T08:36:25+0800
17小时前
查看轨道信息
2026-09-09T23:00:00+0800
3天前
查看轨道信息
半长轴 6861.186km 6861.184km
偏心率 0.0001383 0.0001783
轨道倾角 43.001° 43.004°
近地点辐角 246.384° 217.943°
升交点赤经 138.029° 151.589°
平近点角 113.687° 246.765°
近地点 482.1km 481.823km
远地点 483.998km 484.271km
周期 94.267分钟 94.267分钟
每日圈数 15.275801 15.275808
详细信息
固有亮度:
5
最大亮度:
2.4
卫星平台:
Starlink v1.5
覆盖范围:
全球
运营商:
太空探索技术公司
运营商所在国:
美国
制造商(研发单位):
太空探索技术公司
制造商所在国:
美国
使用方式:
暂无
卫星简介
星链(Starlink)计划是由太空探索技术公司(SpaceX)提出的一个巨型低轨卫星互联网星座项目,计划在2019年至2024年间在太空搭建由约1.2万颗卫星组成的“星链”网络,其中1584颗将部署在地球上空550千米处的近地轨道,并从2020年开始工作。该卫星仍在工作。
2D轨道图
3D轨道图
轨道高度分析图
轨道倾角分析图
轨道综合分析图
查看轨道综合分析图
交会数据列表
事件ID 空间交会对象 最接近时刻(TCA) 交会距离 交会风险概率(CRP) 交会风险指数(CRI) 操作
CDM_260914-062705-705606-712121
2026-09-14T
06:27:05+0000
1.083 km
极远距离
9.769401E-6 低风险 0.55
CDM_260913-232305-705606-712122
2026-09-13T
23:23:24+0000
1.410 km
极远距离
4.004415E-6 低风险 0.47
CDM_260914-005705-705606-712122
2026-09-14T
00:57:33+0000
1.463 km
极远距离
3.559981E-6 低风险 0.46
CDM_260914-045205-705606-712122
2026-09-14T
04:52:56+0000
2.014 km
极远距离
1.458913E-6 低风险 0.38
与全量物体交会距离演化趋势
与全量物体交会风险概率演化趋势